Iron Mountain, MI

10:52 PM CST on January 17, 2018 (GMT -0600)
Ford

Weather History for KIMT - November, 2011

Change the Weather History Date:

Sunday, November 13, 2011

  Actual Average Record
Temperature  
Mean Temperature 44 °F -  
Max Temperature 48 °F 37 °F 69 °F (1999)
Min Temperature 41 °F 22 °F -2 °F (1986)
Degree Days  
Heating Degree Days 20    
Moisture  
Dew Point 38 °F    
Average Humidity 82    
Maximum Humidity 93    
Minimum Humidity 68    
Precipitation  
Precipitation 0.00 in - - ()
Sea Level Pressure  
Sea Level Pressure 29.29 in    
Wind  
Wind Speed 7 mph (SSW)    
Max Wind Speed 9 mph    
Max Gust Speed 18 mph    
Visibility 9 miles    
Events      
Averages and records for this station are not official NWS values.
T = Trace of Precipitation, MM = Missing Value Source: NWS Daily Summary

Daily Weather History Graph

Daily Weather History Graph

Search for Another Location

Airport or City:

Trip Planner

Search our weather history database for the weather conditions in past years. The results will help you decide how hot, cold, wet, or windy it might be!

Date:

Astronomy

Nov. 13, 2011 Rise Set
Actual Time 6:49 AM CST 4:23 PM CST
Civil Twilight 6:17 AM CST 4:55 PM CST
Nautical Twilight 5:41 AM CST 5:31 PM CST
Astronomical Twilight 5:06 AM CST 6:06 PM CST
Moon 6:26 PM CST (11/13) 9:27 AM CST (11/13)
Length of Visible Light 10h 38m
Length of Day
9h 34m
Waning Gibbous, 92% of the Moon is Illuminated
Nov 13
Waning Gibbous
Nov 18
Last Quarter
Nov 25
New
Dec 2
First Quarter
Dec 10
Full

Hourly Weather History & Observations

Time (CST) Temp. Windchill Dew Point Humidity Pressure Visibility Wind Dir Wind Speed Gust Speed Precip Events Conditions
12:54 AM 41.0 °F 35.2 °F 37.9 °F 89% 29.36 in 7.0 mi SSE 9.2 mph - N/A   Clear
1:54 AM 41.0 °F 35.2 °F 37.0 °F 86% 29.34 in 8.0 mi SSE 9.2 mph - N/A   Clear
2:54 AM 41.0 °F 36.4 °F 37.0 °F 86% 29.31 in 9.0 mi SSE 6.9 mph - N/A   Clear
3:54 AM 41.0 °F 35.2 °F 37.0 °F 86% 29.29 in 10.0 mi SSE 9.2 mph - N/A   Clear
4:54 AM 41.0 °F 35.2 °F 37.0 °F 86% 29.29 in 10.0 mi South 9.2 mph - N/A   Clear
5:54 AM 41.0 °F 37.1 °F 37.9 °F 89% 29.27 in 10.0 mi South 5.8 mph - N/A   Clear
6:54 AM 41.0 °F 37.1 °F 39.0 °F 93% 29.27 in 9.0 mi South 5.8 mph - N/A   Partly Cloudy
7:29 AM 41.0 °F 35.2 °F 39.2 °F 93% 29.25 in 7.0 mi South 9.2 mph - N/A   Partly Cloudy
7:54 AM 42.1 °F 38.4 °F 39.0 °F 89% 29.26 in 7.0 mi South 5.8 mph - N/A   Partly Cloudy
8:54 AM 42.1 °F 37.1 °F 39.9 °F 92% 29.27 in 8.0 mi South 8.1 mph - N/A   Overcast
9:54 AM 43.0 °F 38.2 °F 39.9 °F 89% 29.27 in 9.0 mi South 8.1 mph - N/A   Mostly Cloudy
10:54 AM 44.1 °F 41.5 °F 39.9 °F 85% 29.26 in 10.0 mi South 4.6 mph - N/A   Overcast
11:54 AM 46.0 °F 43.9 °F 39.9 °F 79% 29.25 in 10.0 mi South 4.6 mph - N/A   Overcast
12:54 PM 46.9 °F - 39.9 °F 77% 29.22 in 10.0 mi South 9.2 mph - N/A   Overcast
1:54 PM 48.0 °F - 39.9 °F 74% 29.21 in 10.0 mi South 5.8 mph - N/A   Overcast
2:54 PM 48.0 °F - 39.9 °F 74% 29.21 in 10.0 mi Calm Calm - N/A   Overcast
3:54 PM 46.9 °F - 39.9 °F 77% 29.22 in 10.0 mi Calm Calm - N/A   Overcast
4:54 PM 44.1 °F - 39.9 °F 85% 29.25 in 10.0 mi Calm Calm - N/A   Overcast
5:54 PM 44.1 °F 41.5 °F 37.0 °F 76% 29.27 in 10.0 mi WNW 4.6 mph - N/A   Clear
6:54 PM 43.0 °F 41.3 °F 37.0 °F 80% 29.29 in 10.0 mi West 3.5 mph - N/A   Mostly Cloudy
7:54 PM 44.1 °F 39.0 °F 37.0 °F 76% 29.31 in 10.0 mi West 9.2 mph - N/A   Mostly Cloudy
8:54 PM 43.0 °F 39.5 °F 36.0 °F 76% 29.33 in 10.0 mi West 5.8 mph - N/A   Partly Cloudy
9:54 PM 43.0 °F 38.8 °F 35.1 °F 74% 29.36 in 10.0 mi West 6.9 mph - N/A   Overcast
10:54 PM 43.0 °F 37.7 °F 34.0 °F 71% 29.39 in 10.0 mi WSW 9.2 mph - N/A   Overcast
11:54 PM 43.0 °F 38.2 °F 33.1 °F 68% 29.40 in 10.0 mi West 8.1 mph 18.4 mph N/A   Overcast